Wind_Speed
36 37 38 39 41 42 43 46 48 50 49 49 50 49 48 47 46 45 49 53 49 46 37 35 34 36 33 29 28 26 24 24 21 26 23 22 20 20 22 21 18 17 15
41 42 42 44 47 47 47 47 50 51 52 52 52 51 50 49 48 47 48 52 55 51 43 44 41 41 37 35 32 28 24 24 20 22 25 25 24 20 19 20 18 16 16
45 45 47 49 50 51 53 53 52 53 53 54 54 53 51 50 50 49 49 53 55 57 54 51 47 47 42 39 36 33 31 27 25 18 29 28 29 24 18 16 15 14 15
51 50 51 53 54 54 54 54 55 57 57 56 55 54 52 51 50 50 51 55 57 55 59 58 57 55 48 45 42 39 37 31 31 19 19 26 22 18 17 18 18 17 16
56 54 55 55 56 56 58 60 58 57 57 56 51 49 49 48 47 45 51 56 58 54 54 58 62 59 56 52 50 45 42 39 36 31 26 20 21 22 22 21 21 20 19
57 56 58 57 57 59 60 61 61 59 54 52 45 45 46 45 46 46 49 51 57 56 53 58 62 61 60 58 54 50 46 44 41 40 37 26 25 24 24 23 23 22 20
58 58 59 61 62 60 60 58 57 52 49 45 43 44 44 44 44 45 47 47 52 56 55 53 61 63 63 61 61 56 55 54 46 45 42 34 25 27 29 22 23 22 21
59 58 57 58 57 55 51 49 48 48 44 43 42 44 42 40 42 45 45 44 46 50 52 51 54 58 66 62 66 60 69 59 51 51 46 37 33 32 28 27 26 24 25
59 55 54 51 50 48 48 45 42 41 42 41 42 43 43 42 43 43 44 43 44 46 49 49 50 50 57 63 61 60 65 55 61 58 51 46 44 38 33 33 29 28 26
61 59 57 52 50 46 45 42 43 38 38 38 37 42 38 37 38 39 38 42 45 45 46 48 46 46 50 54 60 57 58 60 56 69 59 53 47 42 41 33 28 29 31
59 50 40 38 43 43 41 38 35 31 34 35 36 25 26 27 31 29 28 36 38 40 43 45 46 48 49 50 54 58 53 58 58 65 69 62 53 47 45 34 31 28 33
39 37 40 41 40 38 39 31 32 32 31 33 21 21 19 15 19 24 25 25 31 36 38 41 41 43 46 48 50 50 46 56 67 73 73 65 54 52 44 39 36 34 32
41 39 36 36 37 34 29 32 31 30 28 26 14 21 18 16 16 20 26 24 24 28 34 39 40 41 43 47 45 48 46 51 44 60 66 64 56 50 42 39 33 37 36
36 34 34 34 34 33 38 34 32 27 27 21 21 17 14 16 19 22 27 26 29 28 28 31 36 38 40 42 43 44 36 43 44 55 49 47 20 44 40 35 36 42 35
30 32 34 33 32 32 34 31 23 22 16 13 11 12 15 15 14 14 16 16 26 30 30 32 32 37 42 41 38 38 41 41 47 19 27 24 35 36 30 29 32 32 31
30 32 34 31 29 30 28 27 22 17 12 12 13 13 9 9 12 10 5 14 18 26 25 26 30 31 34 35 37 41 39 32 29 26 27 25 23 25 27 31 31 32 33
34 33 26 28 29 34 30 22 18 14 13 14 13 10 10 10 9 11 9 8 22 16 23 18 17 22 28 28 32 35 32 37 32 29 28 30 30 31 32 32 34 35 37
17 19 23 25 24 13 21 21 15 15 14 15 15 13 12 13 12 12 10 9 13 19 33 13 19 20 22 27 29 32 33 34 36 40 36 37 37 36 36 36 38 39 41
22 18 22 19 12 3 18 23 15 17 19 20 20 19 15 14 12 13 12 9 7 10 7 12 25 28 23 28 28 32 36 37 40 42 41 37 38 39 39 40 39 39 39
21 19 17 16 14 13 11 15 15 16 16 17 15 19 20 16 14 14 13 13 13 13 10 9 7 7 8 14 25 22 36 36 38 39 37 38 38 40 40 39 39 39 39
17 15 12 12 14 10 11 7 11 12 12 14 11 16 19 17 14 15 15 13 14 16 17 15 13 12 13 11 9 10 20 30 40 42 43 41 40 42 39 41 41 40 39
18 15 13 13 11 9 11 11 15 13 15 18 21 20 18 19 18 16 15 14 14 13 12 14 17 17 16 14 13 14 16 16 18 20 22 25 28 31 36 36 38 38 37
16 17 14 13 16 14 12 14 15 8 10 11 12 14 14 18 19 20 19 17 15 16 16 16 16 16 18 20 19 18 19 19 20 21 23 24 26 27 28 29 31 32 33
17 16 15 15 15 14 15 16 17 16 10 11 11 13 15 14 16 16 15 14 14 16 17 16 16 17 19 19 20 22 22 22 24 25 26 26 27 28 29 30 32 33 33
22 18 17 19 20 17 15 16 16 11 14 16 11 16 17 16 15 15 16 16 16 14 13 13 15 16 18 20 21 22 24 24 25 26 27 28 28 28 28 29 30 31 33
24 20 16 16 17 19 19 19 14 14 18 20 18 18 16 16 17 17 19 18 18 19 20 17 19 20 19 19 19 21 25 26 27 28 29 29 30 30 31 32 32 34 34
Wind_Direction
296 293 291 287 282 282 284 286 285 285 284 282 282 279 277 274 268 260 253 253 250 250 234 236 235 234 234 233 238 242 252 266 269 257 251 227 227 233 230 233 241 243 244
294 292 290 289 286 285 284 282 282 282 283 281 280 279 275 272 267 263 254 249 249 243 239 232 234 234 231 232 233 239 247 258 268 263 246 220 219 227 229 220 218 226 236
291 288 287 285 283 284 285 285 284 282 281 282 280 278 275 270 267 262 254 247 244 243 238 236 232 234 234 233 233 234 238 245 254 265 241 211 202 199 210 222 222 221 228
287 288 287 287 287 286 284 281 280 281 282 281 280 278 275 270 264 260 255 247 243 241 240 238 233 232 233 234 234 235 236 239 249 242 244 221 208 200 208 217 222 224 229
291 292 290 289 288 286 285 285 284 282 282 280 278 275 271 268 263 260 256 249 244 239 239 238 231 230 235 233 235 235 236 237 243 242 225 222 221 215 210 213 223 221 229
292 292 290 288 287 286 287 289 288 286 284 279 275 272 267 266 263 261 257 253 246 240 237 233 232 230 232 237 234 237 234 235 239 241 251 220 224 231 224 220 230 233 234
290 288 289 290 290 290 293 291 288 284 279 273 270 271 269 264 263 262 257 253 248 242 239 238 235 236 232 235 238 235 233 237 235 239 242 228 233 231 232 229 235 243 248
287 289 288 291 289 292 294 285 283 281 276 270 269 270 267 268 265 261 254 250 249 244 240 237 237 237 234 238 242 241 241 250 241 238 243 238 236 237 232 238 240 242 250
292 290 291 288 292 294 290 290 286 278 276 272 272 272 269 269 265 258 251 250 245 243 241 240 240 238 240 241 247 250 248 252 240 238 235 237 239 236 236 237 240 245 250
291 293 294 284 290 289 290 287 287 274 274 275 275 276 270 264 258 254 252 249 245 241 239 240 240 238 236 240 243 246 242 248 243 239 227 230 234 234 237 231 234 241 246
296 296 286 287 287 287 289 290 281 273 276 276 278 274 272 262 246 253 257 244 243 243 238 234 237 237 236 241 242 246 246 237 238 244 229 224 221 229 233 236 235 242 247
287 280 284 283 285 287 289 284 279 279 277 280 260 279 286 266 253 253 255 252 248 239 236 233 231 233 236 243 251 247 245 244 246 245 227 221 218 224 229 245 240 240 244
288 279 287 283 284 285 287 287 285 281 279 272 261 271 262 259 262 258 254 252 243 236 235 233 232 233 242 249 262 244 265 232 248 224 219 218 220 220 216 231 239 248 247
288 292 291 283 286 285 286 289 284 276 276 261 260 266 266 273 275 272 260 251 240 234 226 231 236 242 249 255 255 240 230 238 227 225 224 234 221 211 218 227 235 241 251
290 290 294 288 288 287 289 291 273 264 246 257 264 266 270 280 279 282 272 245 237 229 238 233 240 249 255 248 250 254 235 228 226 242 232 203 213 213 215 233 244 254 260
289 291 291 289 291 287 282 282 263 250 251 260 263 267 264 265 275 304 284 217 231 234 241 250 252 254 245 247 249 252 246 248 227 224 225 230 235 240 232 239 246 251 254
291 288 288 294 292 284 271 258 250 249 260 253 238 237 255 269 284 292 304 247 242 225 227 212 227 244 246 249 245 243 245 235 236 236 242 248 249 246 248 249 250 251 253
298 293 296 298 299 261 200 218 232 245 250 253 252 246 260 271 281 283 294 306 246 229 235 240 233 243 247 252 247 241 241 241 245 245 242 244 247 247 248 250 250 251 254
306 295 303 302 318 278 219 214 235 249 249 250 257 256 244 261 271 277 276 270 275 296 317 255 246 248 257 231 248 247 241 242 247 248 247 249 248 247 248 250 253 253 249
316 303 308 304 292 295 289 237 234 251 266 261 267 258 246 252 264 265 262 259 253 264 284 298 315 303 285 257 245 255 240 244 246 252 255 251 253 251 250 251 250 247 245
311 316 295 302 300 293 303 215 250 251 249 264 268 264 272 258 265 273 270 264 256 253 260 270 269 265 265 255 259 253 243 240 239 244 240 239 240 244 246 244 242 238 242
307 307 306 283 311 306 268 249 250 235 250 260 269 276 271 272 266 271 273 267 262 259 262 265 263 262 259 253 249 245 245 249 262 269 263 256 252 251 249 248 245 245 244
298 299 298 285 308 302 293 241 237 256 274 275 278 283 275 272 266 270 275 273 273 270 261 254 252 252 255 256 252 248 246 247 246 244 245 246 246 245 245 246 245 245 245
293 282 274 281 285 298 292 273 256 251 253 278 288 274 260 262 266 265 268 271 262 256 255 262 264 261 256 255 256 254 255 253 251 248 248 248 249 250 249 250 252 251 250
277 278 275 278 278 283 276 255 248 246 263 255 272 279 273 271 265 266 266 258 258 254 266 251 252 252 255 259 259 259 255 254 255 256 254 253 253 254 254 252 250 250 251
260 264 271 272 256 272 274 261 249 234 252 267 279 271 275 266 265 258 255 256 259 261 258 253 257 258 254 254 257 262 264 263 263 261 260 258 257 254 254 256 257 257 255
Height
5863 5861 5860 5857 5854 5852 5849 5846 5843 5840 5839 5837 5835 5834 5833 5832 5832 5833 5834 5835 5838 5834 5840 5846 5849 5850 5853 5853 5855 5857 5859 5860 5861 5858 5855 5854 5855 5857 5858 5861 5863 5865 5867
5855 5852 5849 5845 5841 5839 5837 5834 5830 5827 5824 5822 5820 5819 5819 5817 5817 5818 5821 5823 5826 5830 5835 5836 5842 5842 5844 5846 5849 5851 5853 5854 5854 5855 5854 5849 5848 5851 5854 5855 5855 5857 5860
5846 5842 5838 5834 5830 5827 5823 5819 5816 5812 5810 5806 5804 5803 5802 5802 5802 5804 5806 5809 5812 5817 5823 5825 5831 5833 5837 5839 5841 5844 5846 5848 5848 5850 5848 5847 5844 5843 5848 5851 5851 5852 5854
5832 5828 5825 5821 5817 5814 5810 5806 5802 5798 5795 5792 5788 5787 5787 5787 5787 5789 5791 5793 5797 5802 5807 5813 5818 5822 5828 5829 5832 5836 5839 5842 5844 5844 5844 5842 5843 5840 5842 5847 5847 5847 5848
5819 5816 5812 5808 5802 5798 5793 5790 5787 5783 5779 5776 5774 5772 5771 5772 5773 5774 5774 5777 5782 5788 5792 5797 5803 5811 5817 5820 5823 5828 5832 5834 5837 5839 5838 5839 5841 5839 5836 5840 5842 5842 5842
5806 5802 5796 5792 5788 5783 5777 5773 5769 5765 5762 5760 5759 5758 5757 5758 5759 5759 5759 5762 5767 5773 5778 5785 5791 5797 5804 5811 5813 5818 5822 5826 5829 5831 5831 5834 5833 5838 5835 5833 5837 5838 5838
5791 5786 5781 5776 5771 5767 5762 5757 5752 5748 5745 5744 5743 5742 5743 5744 5745 5745 5745 5748 5752 5758 5765 5771 5778 5785 5791 5797 5803 5806 5810 5815 5818 5822 5826 5828 5826 5830 5831 5830 5830 5833 5834
5776 5772 5766 5760 5756 5751 5747 5742 5738 5734 5731 5729 5730 5729 5728 5731 5731 5731 5732 5735 5739 5745 5752 5757 5762 5769 5776 5783 5789 5793 5801 5806 5808 5811 5816 5819 5818 5819 5824 5823 5822 5825 5828
5761 5756 5751 5746 5742 5737 5734 5730 5726 5721 5718 5716 5716 5716 5715 5717 5716 5718 5720 5723 5728 5733 5738 5743 5748 5755 5763 5769 5771 5776 5782 5789 5792 5797 5804 5808 5810 5811 5812 5813 5814 5816 5820
5745 5740 5735 5732 5728 5725 5721 5717 5712 5707 5707 5706 5704 5702 5699 5700 5703 5706 5709 5712 5716 5721 5725 5730 5737 5743 5748 5752 5756 5761 5764 5773 5775 5779 5787 5794 5798 5802 5801 5801 5804 5808 5810
5728 5725 5721 5717 5716 5712 5709 5703 5699 5697 5697 5696 5694 5690 5689 5687 5691 5697 5699 5701 5705 5709 5713 5719 5725 5730 5734 5738 5740 5744 5751 5756 5757 5764 5771 5777 5783 5789 5794 5791 5794 5796 5799
5713 5712 5709 5706 5704 5700 5697 5693 5690 5689 5688 5687 5685 5684 5684 5684 5686 5690 5692 5694 5696 5700 5705 5709 5714 5719 5722 5726 5730 5735 5738 5740 5739 5739 5755 5763 5770 5776 5782 5784 5782 5787 5789
5703 5699 5697 5695 5693 5690 5687 5685 5682 5679 5679 5678 5678 5679 5680 5681 5682 5684 5685 5687 5687 5690 5695 5701 5706 5711 5714 5716 5719 5722 5722 5722 5721 5724 5738 5745 5753 5762 5766 5771 5776 5774 5779
5690 5689 5687 5685 5682 5680 5678 5676 5674 5671 5671 5671 5672 5674 5675 5676 5677 5678 5678 5679 5681 5683 5685 5692 5697 5702 5704 5705 5710 5714 5713 5713 5717 5718 5719 5730 5710 5750 5755 5759 5763 5766 5769
5681 5680 5678 5675 5673 5671 5669 5668 5665 5664 5665 5666 5667 5669 5670 5671 5672 5671 5670 5671 5673 5676 5678 5682 5685 5689 5691 5693 5697 5701 5703 5704 5715 5702 5718 5715 5730 5734 5739 5748 5751 5755 5757
5674 5672 5668 5666 5663 5662 5661 5660 5659 5659 5660 5662 5663 5664 5666 5668 5668 5666 5665 5666 5665 5667 5671 5673 5677 5677 5679 5683 5686 5690 5694 5698 5702 5707 5711 5716 5721 5728 5732 5738 5742 5745 5747
5665 5662 5659 5658 5654 5653 5653 5652 5654 5655 5656 5658 5659 5662 5664 5665 5664 5662 5661 5659 5660 5663 5666 5666 5664 5668 5673 5676 5679 5683 5687 5693 5697 5700 5705 5710 5714 5719 5724 5728 5731 5733 5736
5658 5656 5654 5651 5647 5643 5646 5648 5650 5652 5653 5655 5656 5659 5661 5662 5661 5659 5658 5657 5655 5658 5657 5660 5662 5665 5667 5669 5672 5676 5680 5684 5688 5692 5696 5701 5706 5710 5714 5717 5719 5721 5724
5654 5652 5650 5647 5645 5642 5644 5645 5647 5649 5650 5651 5653 5655 5656 5657 5656 5656 5656 5656 5655 5655 5656 5657 5659 5661 5661 5663 5666 5669 5673 5677 5680 5682 5686 5690 5694 5698 5701 5704 5707 5709 5712
5651 5649 5647 5645 5644 5643 5642 5642 5643 5644 5646 5647 5648 5649 5650 5653 5653 5652 5652 5654 5655 5654 5655 5654 5653 5654 5656 5659 5661 5662 5666 5669 5672 5674 5677 5680 5685 5688 5691 5693 5696 5698 5700
5648 5645 5644 5643 5642 5641 5640 5640 5639 5641 5642 5644 5645 5646 5647 5650 5650 5649 5650 5652 5653 5653 5652 5652 5653 5654 5656 5656 5655 5657 5659 5661 5664 5666 5669 5671 5675 5679 5681 5684 5686 5688 5690
5645 5643 5641 5640 5639 5639 5638 5637 5638 5639 5640 5641 5641 5643 5643 5644 5646 5645 5646 5647 5648 5649 5650 5650 5650 5650 5651 5652 5652 5654 5656 5656 5658 5659 5661 5664 5666 5669 5671 5674 5677 5679 5681
5641 5640 5638 5636 5636 5635 5635 5635 5633 5635 5637 5638 5638 5638 5638 5638 5639 5640 5641 5642 5643 5644 5644 5645 5646 5646 5647 5647 5648 5650 5651 5653 5654 5655 5657 5659 5661 5662 5664 5667 5669 5671 5673
5637 5636 5635 5634 5632 5632 5631 5630 5631 5631 5631 5633 5633 5633 5633 5634 5634 5634 5635 5636 5637 5637 5637 5638 5640 5641 5642 5642 5643 5644 5646 5647 5648 5649 5651 5652 5654 5656 5657 5658 5660 5663 5665
5631 5630 5629 5628 5628 5627 5627 5626 5626 5627 5628 5628 5629 5629 5629 5630 5630 5630 5630 5630 5630 5631 5632 5633 5633 5634 5635 5636 5637 5638 5639 5641 5642 5643 5644 5645 5647 5648 5650 5650 5651 5653 5655
5622 5623 5623 5622 5622 5623 5622 5621 5621 5622 5624 5624 5625 5624 5624 5624 5624 5626 5624 5624 5625 5625 5625 5627 5628 5628 5628 5629 5631 5632 5632 5634 5635 5636 5637 5638 5638 5639 5640 5641 5642 5644 5645